User: anonymous   Login
Location: Oshawa
(43.9000°N, 78.8670°W)
Time: 09:59:23
(UTC-05:00)
Language:

Explorer 7 - Orbit

View from above orbital plane
View from above orbital plane
View from above satellite
View from above satellite

Ground track
Ground track

The orbit data is extracted from the following two-line orbital elements,

1 00022U 59009A   17347.22618997  .00000066  00000-0  28541-4 0  9999
2 00022  50.2852  83.3494 0141318 356.2129   3.7737 14.94383304 88120
Epoch (UTC): 13 December 2017 05:25:42
Eccentricity: 0.0141318
inclination: 50.2852°
perigee height: 486 km
apogee height: 682 km
right ascension of ascending node: 83.3494°
argument of perigee: 356.2129°
revolutions per day: 14.94383304
mean anomaly at epoch: 3.7737°
orbit number at epoch: 8812

The dashed part of the orbit path shows where the satellite is in the earth's shadow,  

DLR